Location: Marcé
(47.5801°N, 0.3280°W)
Time: 08:04:05
(UTC+01:00)

Vanguard 1 - Pass Details

Date: 09 December 2021
Orbit: 652 x 3830 km, 34.2° (Epoch: 16 January)

Event Time Altitude Azimuth Distance (km) Brightness Sun altitude
Rises 20:32:20 0° 182° (S) 5,932 14.1 -33.1°
Reaches altitude 10° 20:37:44 10° 165° (SSE) 5,467 13.7 -34.0°
Enters shadow 20:42:34 16° 148° (SSE) 5,343 13.5 -34.8°
